{"data":{"norad_id":59896,"epoch":"2026-09-21T05:56:15.846432Z","epoch_age_seconds":109862,"freshness":"FRESH","line1":"1 59896U 24100M   26264.24740563 -.00000399  00000+0 -49711-5 0  9994","line2":"2 59896  43.0027  97.6405 0001095 270.8442  89.2285 15.27575396131108","mean_motion":15.27575396,"eccentricity":0.0001095,"inclination_deg":43.0027,"raan_deg":97.6405,"arg_perigee_deg":270.8442,"mean_anomaly_deg":89.2285,"bstar":-4.9711e-6,"rev_number":13110,"period_min":94.267032826706,"perigee_km":482.31158071947,"apogee_km":483.81418349365,"semimajor_km":6861.1998821066,"source":"CELESTRAK","updated_at":"2026-09-22T09:00:49.107824Z"}}